Torna al catalogo

GAOFEN 3 03

AttivoScienzaSSO
NORAD 52200·PAYLOAD·🇨🇳 China

Lanciato Apr 6, 2022 da Jiuquan Satellite Launch Center

Loading…

Prossimi Passaggi (prossime 24 ore)

TLE

AggiornatoSource: Space-Track

Epoca: Sep 15, 2026, 00:06 UTC

1 52200U 22035A   26258.00480282  .00000021  00000-0  19552-4 0  9997
2 52200  98.4094 265.2949 0000873  72.5489 287.5796 14.42217011233796

Traccia GAOFEN 3 03 in tempo reale con AllMySat

Download on the App Store